Track STARLINK-2418 now! 10-day predictions STARLINK-2418 is classified as:
1 48097U 21027F 22187.06608323 -.00000443 00000-0 -10849-4 0 9997 2 48097 53.0554 58.9042 0001695 86.8289 273.2894 15.06393577 69930